Find Kosmos-1523

NORAD ID: 14612 Int'l Des: 1984-001 Owner: GUKOS Country: SU operational
LEOCIRCULAR

リアルタイム位置

3D地球を読み込み中...

Kosmos-1523について

説明を読み込み中...

次回通過

Passes for default location (London). Set your location on the main map for personalized predictions.

高度履歴

Loading altitude history...

軌道要素

1 14612U 84001B 26104.87447816 -.00000028 00000-0 -66583-4 0 9999
2 14612 74.0054 58.4611 0042112 308.6727 111.7884 12.58656591942322
Epoch: Apr 14, 2026 • Age: 10 hours

現在のステータス

高度 1452.3 km
速度 7.14 km/s
衛星直下点 59.54°N, 145.41°E
打ち上げ日 Jan 5, 1984
運用期間 42.2 years
タイプ other

技術仕様

分類 Payload
質量 60.00 kg
乾燥質量 60.00 kg
総質量 60.00 kg
長さ 0.80 m
直径 0.80 m
スパン 0.80 m
形状 Poly
製造者 NPOPM
バスタイプ Strela-1 11F625
フェーズステータス In Orbit
所有者/国 GUKOS/SU

Most Searched